Vertical_Velocity
-1 -0 -1 0 1 -1 1 -3 -2 -3 -1 -0 -1 -2 -0 -1 0 -2 -0 -3 -0 -0 -0 -1 -1 -3 1 -2 -6 -3 0 3 -1 -3 0 -0 0 -0 0 1 0 1 -4 2 -0 0 -0
-1 -1 -1 0 1 1 -1 0 1 -3 -3 -1 -3 -1 0 -0 -1 -2 1 -2 -2 -1 -1 0 -1 -1 -0 -2 -1 2 2 2 -2 1 2 0 -1 3 3 -1 0 -0 2 1 4 -3 6
0 -1 -2 -0 -1 2 0 1 0 -1 -2 0 -1 1 -1 1 -2 -0 2 -1 -1 1 -1 -2 -1 1 -1 -23 1 -2 2 6 0 0 -3 3 -2 7 3 -2 1 3 -2 1 3 -1 -2
1 1 -1 -2 2 0 2 -0 -1 -1 -0 -2 0 -1 -1 -1 -2 0 -1 -2 -1 -0 -1 -0 -1 -0 -13 3 -3 -10 1 -1 -1 5 0 5 1 5 2 3 -6 -2 -5 -2 -5 2 -1
1 1 1 1 -2 0 -1 1 1 0 0 -3 -1 0 -1 -1 1 -2 -3 -1 0 0 -0 0 -1 0 -14 -1 -7 2 -1 -4 7 -5 -5 9 0 -0 -2 -2 -5 -3 -1 -0 2 -1 -1
1 -0 1 1 3 -1 0 -3 0 2 -2 4 -1 -2 -1 -1 -1 1 -4 -2 3 1 -3 2 -0 0 1 1 8 -3 2 4 0 -2 4 1 -2 -2 -2 -4 -3 0 -0 -1 -0 -5 1
-7 2 -1 0 2 2 1 -1 -3 1 1 -2 0 -2 -2 1 -3 1 -4 -5 0 1 -3 -6 4 -1 -1 5 -1 -8 12 7 8 0 -0 1 -7 -1 -1 -2 -0 0 -0 1 -5 -5 -0
5 -6 1 -2 -1 -0 1 2 1 -0 1 -1 -0 0 -0 0 -3 2 -2 -3 -1 4 -11 -2 -3 -6 -4 15 -9 5 6 -3 1 -1 0 -6 -2 -2 0 -1 0 -1 1 -4 -7 -1 -3
1 2 -3 1 -2 2 -1 -0 3 -1 1 3 1 1 -2 -1 -0 -4 0 7 11 9 4 -14 -4 -4 -13 7 -5 -7 9 0 -2 0 -0 -4 -6 0 1 1 0 -2 0 -1 1 -1 -2
-4 -1 0 -3 1 -1 -1 4 0 4 -2 2 3 -0 4 -2 -1 -5 3 5 1 -1 -0 -14 1 -13 -6 -0 -6 3 3 -7 2 -5 -0 -2 -1 -0 -0 -0 -2 1 -2 -0 1 -4 -3
11 -2 -5 -1 5 -2 0 -1 6 0 4 -1 3 1 2 -1 -3 -4 5 6 1 2 -4 -14 3 5 -1 -9 -1 -2 -1 6 -2 -2 -3 -14 1 0 -0 -5 -2 -12 1 -0 0 -1 -3
-2 12 -3 -6 -2 2 2 2 1 3 3 4 1 4 1 -4 -4 7 -3 2 -1 -8 -16 -4 -1 -2 0 4 -2 -0 -1 13 3 -2 -1 -2 0 -2 -7 -2 -1 -1 -1 -3 -1 -1 -4
1 15 8 -1 -10 -0 -4 2 2 3 -0 5 3 6 -1 3 -5 -2 -1 0 -10 -0 -12 -3 -3 0 -1 -0 1 0 -1 1 -6 -5 -2 -3 -2 -2 -2 -2 -2 -1 -4 -4 -7 -7 -7
-6 1 3 9 -2 -9 -2 4 -2 3 8 -3 6 6 1 -4 2 5 3 -0 9 -7 -2 -3 -0 3 -4 -3 -3 1 1 0 -2 -1 -1 -2 -10 -2 -0 -3 1 -0 -6 -7 -4 -2 -4
-5 -10 8 3 8 1 -12 8 -0 -1 7 6 3 6 6 -10 7 6 1 7 -12 -2 -4 1 2 1 0 1 -4 1 -1 -2 -3 -4 -8 -1 -3 -3 0 -1 -8 -5 -1 -7 -5 -1 -3
-3 -4 15 7 5 3 -1 -15 -0 -2 6 5 7 6 -8 2 9 7 6 -8 -2 0 -1 -0 -2 -5 -1 -1 0 1 -1 -6 -2 -3 -3 -4 -3 -2 -5 4 2 -8 -6 -4 -5 -3 -1
-3 -1 10 -1 2 1 1 5 -14 2 10 2 19 9 -14 6 7 7 -2 -5 -1 -7 7 4 -0 1 -4 -4 -3 -1 -6 -6 0 2 -1 -2 -6 -6 -0 -2 -4 -3 0 -1 -7 -5 -5
3 -4 6 4 3 7 -2 4 -22 3 6 15 4 6 1 2 4 -1 0 -9 -0 -8 3 -2 3 1 -2 -1 0 1 -5 -6 2 -8 -2 -5 -4 -2 -11 -6 -1 -2 -2 -3 -7 -4 -1
3 -1 1 7 -0 -0 -13 -1 -8 -4 10 6 5 1 46 -8 -3 0 0 -2 -2 3 -1 -0 -0 -1 -1 -2 -4 -2 0 -0 1 -1 -6 -6 -2 -3 -13 -14 -6 0 -1 -1 -1 -3 -2
1 7 2 3 -0 -1 -0 -1 -4 -11 7 20 15 4 13 26 2 -5 0 -4 1 -1 -4 2 0 2 1 0 -0 -1 1 -1 -0 -0 -0 -4 -0 -8 -11 -11 -3 0 -0 0 -4 -3 -3
-0 -0 6 5 5 -6 1 -9 -3 1 -0 34 8 -6 -20 -1 9 2 4 -1 1 0 -2 4 0 3 -0 0 1 0 1 0 0 1 -0 -5 -3 -0 -1 -1 0 -0 -0 -0 -1 -3 -7
2 2 2 1 1 -10 -1 2 -22 15 6 39 7 1 18 -0 5 7 0 -6 -4 -1 4 -5 8 -3 1 -2 -9 -4 -5 -1 -5 1 -1 -0 -3 -0 -0 -0 -0 0 -0 0 -0 0 1
2 2 2 2 -1 -7 -1 -3 -27 24 16 2 2 -4 2 -4 4 7 -16 -10 -12 3 -3 -7 -4 6 2 -8 -3 -2 -4 -3 -8 -7 -0 -3 -3 -2 -3 0 -1 -8 -5 -1 -1 -0 -3
2 -1 -0 -0 -2 -0 -5 -19 -9 -6 5 -4 -17 7 12 -2 1 -12 -0 -3 -2 -6 -11 -7 10 6 -7 5 -1 -1 -9 -2 -2 2 -3 -2 -2 -1 -2 -3 -7 -22 -1 -2 -4 1 0
-2 -1 -2 -1 -3 -3 7 -6 -7 -3 20 -1 2 15 6 -1 -6 7 8 -4 4 -1 3 1 -0 -6 -3 1 -5 -4 -8 -7 -1 1 -0 -2 -2 -2 -6 -1 -9 -5 0 -3 -7 -0 -0
-0 -2 -0 -3 -2 2 -1 -5 -20 -8 8 -5 15 -6 5 4 -7 -10 -2 -9 -7 -1 7 0 -3 5 13 -2 -3 -2 -3 -3 2 2 -0 -2 -3 -8 -0 -3 -5 -11 -2 1 -3 -5 -1
-1 2 2 2 -5 -2 1 -8 9 -2 -6 14 -7 16 3 4 -4 4 -8 -16 1 1 -3 1 1 -0 5 -0 -1 -2 -3 -7 -5 -2 -1 -1 -2 -4 0 -1 -10 -5 -2 1 -13 -24 0
1 1 2 -2 2 -1 -2 -9 4 -10 9 3 2 -1 -7 2 -17 6 7 -8 15 3 -4 -0 -5 -5 -2 -5 -3 -2 -2 -4 -4 -4 -5 -6 -6 -1 -1 -1 -12 -1 2 -10 -14 4 -1
1 -0 -0 2 1 -1 -1 -4 1 1 12 7 3 -9 -1 2 -7 7 7 5 11 -21 -18 7 -7 -2 -3 -5 -2 -2 -1 -1 -2 -3 2 -7 -13 -12 -13 -15 -4 4 -0 1 -1 -7 2
Height
1528 1528 1529 1530 1531 1533 1534 1536 1537 1537 1538 1537 1537 1536 1535 1534 1534 1533 1531 1529 1527 1524 1521 1518 1515 1514 1512 1510 1505 1504 1502 1501 1500 1500 1502 1504 1506 1506 1505 1501 1500 1500 1491 1495 1496 1497 1498
1522 1523 1524 1525 1525 1526 1528 1530 1532 1532 1534 1534 1534 1533 1533 1532 1531 1530 1528 1527 1525 1522 1519 1517 1514 1513 1512 1512 1505 1504 1503 1502 1501 1501 1503 1505 1505 1504 1504 1500 1499 1493 1490 1495 1496 1500 1497
1515 1516 1517 1519 1520 1521 1521 1523 1526 1528 1529 1530 1530 1530 1529 1529 1528 1527 1526 1524 1523 1520 1517 1515 1513 1512 1510 1506 1504 1504 1504 1503 1503 1503 1504 1505 1505 1505 1501 1499 1496 1493 1494 1496 1500 1502 1500
1507 1509 1511 1512 1514 1515 1516 1517 1519 1522 1524 1525 1526 1527 1526 1525 1525 1524 1523 1522 1521 1517 1516 1513 1513 1511 1504 1502 1502 1501 1503 1503 1504 1503 1503 1504 1504 1502 1500 1498 1496 1495 1496 1507 1502 1500 1498
1499 1501 1502 1505 1507 1509 1511 1512 1514 1516 1519 1521 1522 1523 1523 1523 1522 1521 1520 1519 1518 1515 1514 1513 1512 1511 1502 1500 1500 1500 1501 1501 1502 1503 1502 1503 1502 1502 1500 1502 1509 1504 1511 1504 1507 1497 1496
1489 1491 1494 1496 1499 1502 1504 1506 1509 1512 1513 1516 1518 1519 1520 1520 1519 1518 1518 1516 1514 1513 1512 1511 1510 1513 1500 1499 1499 1498 1500 1500 1502 1502 1503 1502 1502 1504 1505 1510 1523 1509 1505 1503 1506 1496 1495
1478 1481 1483 1487 1490 1493 1496 1499 1503 1505 1508 1510 1513 1514 1517 1516 1516 1516 1517 1516 1516 1513 1509 1505 1503 1500 1497 1498 1496 1496 1498 1500 1502 1502 1505 1501 1509 1513 1505 1504 1501 1502 1505 1512 1501 1495 1496
1468 1471 1474 1477 1481 1484 1488 1492 1495 1499 1502 1506 1508 1511 1513 1513 1514 1514 1514 1514 1515 1516 1507 1499 1497 1496 1495 1497 1498 1494 1496 1499 1500 1504 1504 1507 1511 1502 1501 1504 1504 1506 1510 1509 1492 1484 1492
1458 1460 1464 1467 1471 1475 1479 1484 1488 1492 1496 1500 1504 1507 1508 1510 1511 1512 1512 1513 1513 1514 1511 1491 1488 1489 1491 1494 1495 1491 1495 1496 1497 1502 1503 1507 1502 1498 1501 1503 1507 1505 1508 1504 1500 1490 1490
1445 1449 1452 1458 1462 1466 1471 1475 1480 1484 1489 1494 1498 1502 1505 1508 1512 1509 1510 1510 1509 1512 1516 1492 1483 1483 1488 1490 1491 1488 1492 1495 1496 1501 1501 1502 1497 1499 1502 1503 1504 1510 1490 1495 1496 1501 1513
1433 1436 1443 1447 1453 1457 1462 1468 1472 1476 1481 1487 1492 1497 1501 1504 1506 1507 1509 1508 1510 1513 1537 1479 1478 1478 1481 1486 1486 1485 1489 1491 1495 1497 1500 1502 1497 1498 1502 1500 1499 1504 1489 1493 1492 1504 1507
1419 1425 1430 1437 1443 1447 1453 1458 1465 1469 1474 1480 1486 1492 1496 1499 1502 1505 1506 1508 1511 1520 1522 1477 1471 1474 1480 1482 1483 1484 1485 1488 1489 1494 1496 1496 1493 1492 1494 1491 1493 1492 1491 1498 1504 1510 1532
1405 1411 1418 1424 1432 1439 1444 1450 1457 1463 1467 1474 1479 1486 1491 1496 1498 1502 1504 1508 1519 1517 1480 1473 1472 1471 1477 1481 1482 1483 1485 1488 1495 1506 1507 1498 1496 1488 1489 1495 1491 1492 1504 1528 1530 1543 1538
1390 1398 1405 1413 1419 1429 1435 1442 1449 1456 1462 1467 1475 1480 1485 1491 1496 1499 1502 1508 1510 1490 1480 1463 1465 1470 1479 1478 1479 1480 1485 1492 1487 1491 1506 1510 1516 1495 1490 1494 1500 1498 1502 1531 1535 1545 1528
1377 1385 1391 1401 1409 1417 1426 1433 1441 1449 1457 1461 1471 1475 1477 1485 1492 1496 1501 1501 1492 1482 1468 1467 1466 1473 1477 1473 1475 1480 1484 1486 1483 1486 1503 1509 1507 1494 1491 1489 1495 1499 1506 1498 1525 1533 1534
1361 1371 1379 1387 1397 1406 1415 1424 1433 1442 1450 1458 1464 1468 1471 1480 1488 1494 1497 1482 1478 1469 1465 1464 1470 1467 1477 1473 1478 1480 1482 1474 1477 1477 1480 1495 1506 1495 1490 1487 1485 1494 1491 1508 1520 1528 1529
1346 1358 1366 1376 1385 1396 1405 1414 1425 1434 1444 1454 1461 1464 1463 1474 1484 1490 1478 1476 1473 1462 1471 1468 1463 1464 1464 1469 1471 1476 1473 1470 1469 1477 1480 1491 1496 1500 1491 1491 1489 1494 1496 1497 1507 1522 1530
1331 1342 1354 1364 1374 1386 1396 1405 1416 1425 1437 1447 1452 1453 1457 1464 1477 1475 1468 1471 1470 1464 1467 1468 1461 1458 1458 1459 1466 1468 1470 1465 1464 1468 1480 1482 1493 1514 1493 1480 1482 1487 1490 1495 1526 1515 1531
1316 1327 1340 1353 1363 1373 1386 1398 1407 1418 1426 1438 1441 1445 1450 1453 1459 1459 1462 1465 1467 1462 1462 1462 1459 1451 1448 1455 1464 1461 1463 1460 1461 1464 1472 1479 1493 1519 1505 1494 1485 1486 1484 1485 1497 1512 1518
1302 1314 1327 1340 1353 1365 1377 1389 1398 1407 1417 1431 1432 1435 1441 1443 1438 1445 1454 1457 1458 1455 1460 1461 1458 1453 1451 1454 1452 1459 1461 1462 1460 1461 1465 1467 1484 1495 1513 1498 1489 1485 1481 1482 1492 1520 1513
1289 1304 1317 1330 1343 1357 1368 1378 1387 1396 1408 1421 1416 1411 1411 1418 1426 1433 1443 1447 1451 1451 1450 1451 1453 1453 1456 1457 1457 1458 1459 1464 1462 1462 1467 1470 1484 1483 1484 1482 1481 1482 1483 1479 1486 1489 1502
1279 1294 1308 1322 1335 1348 1359 1367 1376 1387 1401 1410 1404 1400 1406 1410 1421 1427 1432 1430 1440 1441 1443 1443 1449 1444 1447 1450 1449 1458 1454 1461 1461 1464 1466 1471 1487 1483 1484 1484 1483 1482 1481 1480 1478 1477 1483
1270 1286 1301 1314 1327 1339 1349 1357 1368 1377 1390 1391 1397 1398 1398 1404 1410 1422 1412 1419 1423 1436 1433 1436 1440 1442 1443 1442 1439 1440 1441 1445 1449 1460 1470 1476 1489 1499 1497 1494 1490 1502 1483 1477 1473 1471 1473
1265 1281 1295 1308 1320 1331 1341 1350 1360 1369 1376 1386 1391 1396 1392 1394 1400 1394 1408 1414 1418 1422 1430 1428 1435 1440 1436 1437 1439 1441 1445 1451 1452 1457 1460 1478 1486 1500 1508 1505 1517 1480 1468 1467 1475 1476 1474
1263 1277 1291 1302 1314 1325 1334 1346 1355 1361 1370 1382 1386 1391 1391 1393 1392 1398 1403 1407 1419 1424 1422 1426 1426 1429 1433 1432 1447 1456 1467 1461 1461 1463 1464 1466 1485 1501 1509 1511 1493 1473 1468 1470 1471 1483 1478
1262 1275 1287 1299 1310 1322 1331 1341 1349 1357 1366 1378 1383 1392 1388 1388 1381 1394 1400 1402 1409 1412 1421 1420 1424 1426 1426 1433 1449 1459 1472 1465 1473 1468 1468 1472 1478 1492 1509 1509 1510 1478 1464 1463 1464 1493 1477
1264 1275 1287 1297 1308 1318 1327 1336 1343 1353 1362 1372 1381 1387 1392 1389 1381 1385 1387 1390 1403 1406 1413 1418 1419 1424 1421 1440 1457 1462 1465 1452 1471 1475 1482 1489 1494 1501 1518 1512 1493 1466 1461 1463 1483 1486 1473
1268 1278 1287 1296 1306 1315 1325 1333 1340 1352 1362 1369 1380 1384 1392 1393 1383 1382 1385 1387 1393 1397 1404 1409 1418 1421 1428 1439 1447 1454 1462 1456 1463 1460 1469 1475 1492 1504 1501 1508 1491 1457 1461 1469 1467 1467 1469
1272 1280 1288 1296 1305 1314 1323 1332 1339 1352 1362 1370 1375 1383 1391 1393 1383 1381 1378 1379 1383 1389 1398 1403 1404 1409 1413 1426 1438 1443 1451 1457 1456 1471 1458 1467 1466 1478 1478 1476 1456 1455 1456 1458 1461 1463 1467